Flag for Japan Weather past 2 weeks in Minamisōma, Japan

Now
30 °F

Snow. Ice fog.


Feels Like: 23 °F
Forecast: 29 / 41 °F
Wind: 8 mph from North

Location: Sendai Airport

Current Time: Jan 30, 2015 at 3:58:36 PM

Latest Report: Jan 30, 2015 at 3:00 PM


Visibility: 0 mi

Pressure: 30.04 "Hg

Humidity: 100%

Dew point: 30 °F

Location of MinamisōmaLocation

Historic Weather in Minamisōma — Graph

°F

Minamisōma temperature yesterday

Maximum temperature yesterday: 45 °F (at 2:00 PM)
Minimum temperature yesterday: 23 °F (at 6:00 AM)
Average temperature yesterday: 36 °F

Past Weeks' High & Low Weather Summary

 TemperatureHumidityPressure
High52 °F (Jan 27, 1:00 PM)100% (Jan 15, 9:00 PM)30.45 "Hg (Jan 15, 9:00 PM)
Low23 °F (Jan 21, 6:00 AM)31% (Jan 29, 12:00 PM)29.53 "Hg (Jan 23, 6:00 AM)
Average38 °F67%30.02 "Hg
* Reported Jan 15 3:00 PM — Jan 30 3:00 PM, Minamisōma, Weather by CustomWeather, © 2014

Note: Actual official high and low records may vary slightly from our data, if they occured in-between our weather recording intervals... More about our weather records

Advertising

Minamisōma weather history for previous 24 hours

 ConditionsComfort  
Time TempWeatherWind HumidityBarometerVisibility
3:00 PM
Jan 30
30 °FSnow. Ice fog.8 mph100%30.04 "Hg1 mi
2:00 PM32 °FSnow. Ice fog.6 mph100%30.07 "Hg1 mi
1:00 PM32 °FSnow. Ice fog.5 mph100%30.07 "Hg1 mi
12:00 PM32 °FLight snow. Ice fog.3 mph100%30.12 "Hg1 mi
11:00 AM32 °FLight snow. Ice fog.2 mph93%30.15 "Hg1 mi
10:00 AM34 °FLight snow. Broken clouds.3 mph70%30.21 "HgN/A
9:00 AM34 °FPartly sunny.3 mph70%30.21 "HgN/A
8:00 AM32 °FPartly sunny.2 mph75%30.24 "HgN/A
7:00 AM28 °FPartly sunny.3 mph86%30.24 "HgN/A
6:00 AM28 °FPassing clouds.1 mph86%30.21 "HgN/A
9:00 PM
Jan 29
32 °FPassing clouds.6 mph75%30.33 "HgN/A
8:00 PM32 °FPartly cloudy.2 mph75%30.33 "HgN/A
7:00 PM34 °FPartly cloudy.1 mph65%30.33 "HgN/A
6:00 PM36 °FPassing clouds.2 mph60%30.33 "HgN/A
5:00 PM39 °FPassing clouds.2 mph48%30.30 "HgN/A
4:00 PM39 °FPartly sunny.5 mph56%30.30 "HgN/A
3:00 PM41 °FBroken clouds.7 mph53%30.27 "HgN/A
Weather by CustomWeather, © 2014

See weather overviewHow to use our weather pages